Miscellaneous Local Product
Issued by NWS North Platte, NE

Home | Current Version | Previous Version | Graphics & Text | Print | Product List | Glossary On
Versions: 1 2 3 4 5 6 7 8 9 10 11 12 13 14 15 16 17 18 19 20 21 22 23 24 25 26 27 28 29 30 31 32 33 34 35 36 37 38 39 40 41 42 43 44 45 46 47 48 49 50
357
AXUS43 KLBF 130110
MISLBF


WESTERN AND NORTH CENTRAL NEBRASKA HOURLY WEATHER ROUNDUP
NATIONAL WEATHER SERVICE NORTH PLATTE NE
700 PM CST FRI FEB 12 2016

NOTE: "FAIR" INDICATES FEW OR NO CLOUDS BELOW 12,000 FEET WITH NO
SIGNIFICANT WEATHER AND/OR OBSTRUCTIONS TO VISIBILITY.

NOTE: STATIONS NOT REPORTING VARIABLES SUCH AS SKY/WEATHER OR
PRESSURE ARE PROVIDED BY THE NEBRASKA DEPARTMENT OF
ROADS...RAWS...AND APRS NETWORKS...AND ARE NOT UNDER
NATIONAL WEATHER SERVICE QUALITY CONTROL.

...OBSERVATIONS IN AND NEAR THE EASTERN PANHANDLE OF NEBRASKA...

CITY           SKY/WX    TMP DP  RH WIND       PRES   REMARKS
PINE RIDGE     CLOUDY    31  25  78 SE8       30.34S WCI  23
CHADRON        CLOUDY    34  27  75 SE6       30.32S WCI  29
ALLIANCE       CLOUDY    33  29  85 SE10      30.31R WCI  25
SIDNEY         FOG       30  30 100 SE13      30.32R VSB 1/2 WCI  20
CRESCENT LAKE    N/A     33  29  85 S6G13       N/A  WCI  27
BIG SPRINGS      N/A     34  31  90 E6          N/A  WCI  29
$$

...OBSERVATIONS IN NORTH CENTRAL NEBRASKA...

CITY           SKY/WX    TMP DP  RH WIND       PRES   REMARKS
VALENTINE      CLOUDY    24  15  68 E8        30.46R WCI  15
THEDFORD       CLOUDY    28  22  81 E8        30.43S WCI  19
AINSWORTH      CLOUDY    23  16  74 E9        30.47R WCI  13
O`NEILL        CLOUDY    17   9  71 NE9       30.54R WCI   6
ORD            CLOUDY    21  14  74 NE7       30.51R WCI  12
BROKEN BOW     CLOUDY    25  18  74 E9        30.46R WCI  15
VALENTINE NWR    N/A     24  15  67 E7          N/A  WCI  16
BUTTE            N/A     13   8  79 NE12        N/A  WCI  -1
HALSEY           N/A     26  20  76 E3          N/A
CHAMBERS         N/A     18   6  58 E3          N/A
EWING            N/A     14   9  81 NE3         N/A
$$

...OBSERVATIONS IN SOUTHWEST NEBRASKA AND FAR NORTHEAST COLORADO...

CITY           SKY/WX    TMP DP  RH WIND       PRES   REMARKS
WRAY           CLOUDY    33  31  92 E10       30.34S WCI  25
HOLYOKE        CLOUDY    34  32  93 SE13      30.35R WCI  25
IMPERIAL       CLOUDY    33  29  85 SE9       30.37S WCI  25
OGALLALA       CLOUDY    33  29  85 E7        30.37R WCI  27
NORTH PLATTE   CLOUDY    29  25  85 E8        30.43R WCI  21
MCCOOK         CLOUDY    32  28  85 E12       30.43R WCI  23
LEXINGTON      CLOUDY    27  22  81 E9        30.48R WCI  18
PAXTON           N/A     32  29  90 E7          N/A  WCI  26
STAPLETON        N/A     26  22  86 CALM        N/A
GOTHENBURG       N/A     28  25  88 E8          N/A  WCI  20
CALLAWAY         N/A     26  23  89 E12         N/A  WCI  16
$$

...OBSERVATIONS IN CENTRAL LINCOLN COUNTY AREA...

CITY           SKY/WX    TMP DP  RH WIND       PRES   REMARKS
N.P. AIRPORT   CLOUDY    29  25  85 E8        30.43R WCI  21
N.P. DOWNTOWN    N/A     29  26  87 E3G12       N/A
N.P. SOUTHEAST   N/A     29  25  85 E3          N/A
N.P. HILLCREST   N/A     28  25  89 E13         N/A  WCI  17
$$

...SOME OBSERVATIONS FROM AROUND THE REGION...

CITY           SKY/WX    TMP DP  RH WIND       PRES   REMARKS
DENVER         PTCLDY    39  31  72 NE6       30.24R WCI  35
LARAMIE        CLOUDY    36  24  62 E5        30.24S WCI  32
CHEYENNE       CLOUDY    40  27  59 S10       30.24S WCI  33
SCOTTSBLUFF    CLOUDY    34  30  85 SE15      30.30R WCI  24
RAPID CITY     CLOUDY    23  21  92 SE14      30.34F WCI  11
BISMARCK       CLOUDY     8  -3  61 E8        30.57F WCI  -4
PIERRE         CLOUDY    15   7  70 E13       30.55R WCI   1
WINNER         CLOUDY    20  10  65 E12       30.53R WCI   8
SIOUX FALLS    CLOUDY     4  -6  63 N6        30.59R WCI  -7
OMAHA          CLOUDY    15   4  61 N12       30.62R WCI   2
GRAND ISLAND   CLOUDY    20  13  74 NE14      30.53R WCI   7
KANSAS CITY    CLEAR     24   8  50 N10       30.53R WCI  14
WICHITA        CLOUDY    38  24  57 NE14      30.48R WCI  30
OKLAHOMA CITY  CLEAR     49  30  48 NE14      30.37R
LIBERAL        CLEAR     45  27  49 E15       30.36R
HAYS           CLOUDY    34  19  55 E14       30.46R WCI  24
GOODLAND       CLOUDY    31  29  92 E15       30.36R WCI  20
$$




USA.gov is the U.S. government's official web portal to all federal, state and local government web resources and services.